星链-32837 (STARLINK-32837)

导读

STARLINK-32837是由美国于2025年1月24日发射的星链卫星,星链是SpaceX打造的低轨卫星互联网星座项目。该卫星承担着为全球偏远、欠发达区域及传统网络覆盖薄弱区域提供高速低延迟宽带互联网服务的任务,依托低轨部署优势,助力构建全球化卫星通信网络,进一步拓展了星链星座的服务覆盖范围。

基本信息
目录编号:
62812
目录名称:
STARLINK-32837
国际标识:
2025-018G
轨道中心:
EARTH
卫星名称:
星链-32837
卫星全名:
星链-32837 (STARLINK-32837)
卫星状态:
在轨 (已飞行589 天)
发射日期:
2025-01-24 UTC
国别 :
美国 (US)
星等 :
--
轨道信息
数据来源 国际轨道数据
星历时间: 2026-09-05T11:09:03+0800
5小时前
查看轨道信息
半长轴: 6840.823km
偏心率: 0.0001142
轨道倾角: 53.158°
近地点辐角 86.095°
升交点赤经 193.859°
平近点角 274.019°
近地点: 461.904km
远地点: 463.468km
周期: 93.847分钟
每日圈数: 15.344059
详细信息
固有亮度:
5
最大亮度:
2.5
卫星平台:
Starlink V1.0
覆盖范围:
全球
运营商:
太空探索技术公司
运营商所在国:
美国
制造商(研发单位):
太空探索技术公司
制造商所在国:
美国
使用方式:
暂无
卫星简介
Starlink 计划是 SpaceX 推出的全球卫星互联网项目,通过发射低轨道卫星,为全球尤其是偏远地区提供高速、低延迟的互联网服务。自 2019 年起,Starlink 已部署数千颗卫星,旨在缩小全球数字鸿沟,推动互联网普及。该项目还为军事、航空等行业提供通信支持,带来广泛经济效益。
2D轨道图
3D轨道图
轨道高度分析图
轨道倾角分析图
轨道综合分析图
查看轨道综合分析图
交会数据列表
事件ID 空间交会对象 最接近时刻(TCA) 交会距离 交会风险概率(CRP) 交会风险指数(CRI) 操作
CDM_260907-152504-976706-281221
2026-09-07T
15:25:34+0000
0.430 km
远距离
2.492692E-4 高风险 0.83
CDM_260906-233705-300306-281221
2026-09-06T
23:37:58+0000
0.766 km
远距离
5.678313E-5 中风险 0.7
CDM_260907-030605-871406-281221
2026-09-07T
03:06:17+0000
0.757 km
远距离
4.338326E-5 中风险 0.68
CDM_260906-122106-058806-281222
2026-09-06T
12:21:41+0000
0.572 km
远距离
2.353178E-5 中风险 0.62
CDM_260906-172205-301106-281222
2026-09-06T
17:22:24+0000
1.019 km
极远距离
2.198396E-5 中风险 0.62
CDM_260906-122805-417306-281222
2026-09-06T
12:28:08+0000
1.112 km
极远距离
1.128746E-5 中风险 0.56
CDM_260907-131505-871406-281221
2026-09-07T
13:15:56+0000
1.261 km
极远距离
7.712475E-6 低风险 0.53
CDM_260906-185605-301106-281222
2026-09-06T
18:56:12+0000
1.384 km
极远距离
7.620393E-6 低风险 0.53
CDM_260906-220405-300306-281222
2026-09-06T
22:04:11+0000
1.592 km
极远距离
4.823563E-6 低风险 0.49
CDM_260907-114606-091906-281221
2026-09-07T
11:46:53+0000
1.304 km
极远距离
3.37435E-6 低风险 0.46